Regional Weather Roundup
Issued by NWS

Home | Current Version | Previous Version | Text Only | Print | Product List | Glossary Off
Versions: 1 2 3 4 5 6 7 8 9 10 11 12 13 14 15 16 17 18 19 20 21 22 23 24 25 26 27 28 29 30 31 32 33 34 35 36 37 38 39 40 41 42 43 44 45 46 47 48 49 50

000
ASUS45 KTFX 252210
RWRMT
MONTANA REGIONAL WEATHER ROUNDUP
NATIONAL WEATHER SERVICE GREAT FALLS MT
400 PM MDT THU AUG 25 2016

NOTE: "FAIR" INDICATES FEW OR NO CLOUDS BELOW 12000 FEET WITH NO
SIGNIFICANT WEATHER AND/OR OBSTRUCTIONS TO VISIBILITY.

MTZ001>007-043-252300-
WEST OF THE DIVIDE

CITY           SKY/WX    TMP DP  RH WIND       PRES   REMARKS
KALISPELL      MOSUNNY   74  34  23 E10       30.13F
MISSOULA       SUNNY     75  34  22 VRB3      30.13F
BUTTE          CLOUDY    65  28  24 VRB5      30.20F
MULLAN PASS    SUNNY     64  28  25 N6        30.25F
DEER LODGE       N/A     68  27  21 N6        30.20F
EUREKA           N/A     75  37  25 NW3       30.14F
HAMILTON         N/A     72  34  25 NW6       30.13F
LIBBY            N/A     77  32  19 E5        30.11F
PLAINS           N/A     80  34  19 NE7       30.12F
RONAN            N/A     74  37  26 NW9       30.19F
$$

MTZ008-052>055-252300-
SOUTHWEST MONTANA

CITY           SKY/WX    TMP DP  RH WIND       PRES   REMARKS
BOZEMAN        SUNNY     70  33  25 CALM      30.17F
DILLON         CLOUDY    68  28  22 N10       30.16F
W YELLOWSTONE  MOSUNNY   66  18  15 NW10      30.20F
ENNIS          SUNNY     68  25  19 NE10G18   30.22F
THREE FORKS      N/A     70  70 100 CALM      30.15F
TWIN BRIDGES     N/A     70  28  21 NW8       30.14F
$$

MTZ009-010-012-014-046-048-049-054-252300-
EAST SLOPES AND CENTRAL MONTANA

CITY           SKY/WX    TMP DP  RH WIND       PRES   REMARKS
CUT BANK       CLOUDY    65  39  38 N13       30.20S
GREAT FALLS    CLOUDY    68  35  29 N7        30.18F
MALMSTROM AFB  PTSUNNY   69  36  30 NE6G15    30.18F
HELENA         CLOUDY    73  32  22 VRB5      30.18F
CHOTEAU          N/A     72  30  21 N8        30.20F
CONRAD           N/A     69  35  28 CALM      30.20F
$$

MTZ011-013-016-021-045-047-050-051-252300-
NORTH CENTRAL MONTANA

CITY           SKY/WX    TMP DP  RH WIND       PRES   REMARKS
HAVRE          CLOUDY    71  38  29 N8        30.14F
LEWISTOWN      SUNNY     69  32  25 VRB5      30.20F
N BAR RANCH    CLOUDY    63  34  34 CALM      30.22F
CHINOOK          N/A     72  37  28 SW3       30.14F
$$

MTZ017>020-022>027-061-062-252300-
NORTHEAST MONTANA

CITY           SKY/WX    TMP DP  RH WIND       PRES   REMARKS
GLASGOW        MOSUNNY   73  37  27 VRB5      30.12F
JORDAN           N/A     71  35  26 CALM      30.15F
SIDNEY         MOSUNNY   73  40  30 NW12G21   30.12F
WOLF POINT     MOSUNNY   75  36  24 NW8       30.12F
POPLAR           N/A     73  39  29 W8        30.12F
SCOBEY           N/A     71  39  31 SW5       30.11F
$$

MTZ028>42-056>058-252300-
SOUTHCENTRAL AND SOUTHEAST MONTANA

CITY           SKY/WX    TMP DP  RH WIND       PRES   REMARKS
BAKER          CLOUDY    66  39  37 NW12      30.20F
BILLINGS       MOSUNNY   69  36  29 CALM      30.17F
LIVINGSTON     SUNNY     68  33  27 E8        30.17F
MILES CITY     SUNNY     70  39  32 SW10      30.18F
EKALAKA          N/A     65  35  32 NW7       30.18F
FORSYTH          N/A     70  37  30 N5        30.18F
LAUREL           N/A     69  35  28 CALM      30.15F
ROUNDUP          N/A     67  34  29 SW3       30.08F
$$

REGIONAL REPORTS...DAKOTAS

CITY           SKY/WX    TMP DP  RH WIND       PRES   REMARKS
WILLISTON      PTSUNNY   75  34  22 W14       30.10F
MINOT          MOSUNNY   75  39  27 N8        30.07F
DICKINSON      PTSUNNY   68  33  27 NW12G17   30.14F
CROSBY           N/A     73  37  27 W8        30.10F
WATFORD CITY   PTSUNNY   73  39  29 N7        30.11F
BISMARCK       CLOUDY    69  47  45 W6        30.15F
GRAND FORKS    MOSUNNY   71  49  45 NW9       30.04S
FARGO          CLOUDY    70  49  47 W13       30.07R
BUFFALO SD       N/A     68  40  35 NW6       30.15F
RAPID CITY     MOSUNNY   68  41  37 VRB3      30.22F
$$

REGIONAL REPORTS...WYOMING/IDAHO/WASHINGTON

CITY           SKY/WX    TMP DP  RH WIND       PRES   REMARKS
GILLETTE       PTSUNNY   64  38  38 VRB3      30.23F
SHERIDAN       MOSUNNY   68  39  34 SE8       30.20F
BUFFALO WY     PTSUNNY   63  41  44 S12       30.25F
CODY           PTSUNNY   61  41  48 N5        30.20F
YELLOWSTONE LA   N/A     58  29  33 VRB3      30.26F
IDAHO FALLS    MOSUNNY   77  29  17 NW12      30.10F
SALMON         SUNNY     73  34  23 W3        30.09F
BOISE          SUNNY     82  33  17 N9G16     30.02F
SPOKANE        MOSUNNY   82  32  16 N8        30.10F
$$

REGIONAL REPORTS...ALBERTA

CITY           SKY/WX    TMP DP  RH WIND       PRES   REMARKS
EDMONTON       LGT RAIN  57  54  88 N13G18    30.15S
CALGARY        PTSUNNY   64  46  52 NW20      30.21F
LETHBRIDGE     PTSUNNY   64  50  59 W14G21    30.20F
MEDICINE HAT   PTSUNNY   63  50  63 SW10      30.15F
WATERTON GATE    N/A     55  46  71 S3          N/A
CARDSTON         N/A     61  46  59 NW3         N/A
MILK RIVER       N/A     63  45  51 NW12        N/A
$$

REGIONAL REPORTS...SASKATCHEWAN

CITY           SKY/WX    TMP DP  RH WIND       PRES   REMARKS
SWIFT CURRENT  CLOUDY    64  48  55 W16G23    30.11F
REGINA         PTSUNNY   72  43  35 W13       30.06F
SASKATOON      PTSUNNY   72  50  46 W10G20    30.04F
CYPRESS HILLS    N/A     55  46  71 NW5         N/A
VAL MARIE        N/A     68  39  34 NW9         N/A
ROCKGLEN         N/A     63  43  48 NW8         N/A
ASSINIBOIA       N/A     61  54  77 NW12        N/A
$$



USA.gov is the U.S. government's official web portal to all federal, state and local government web resources and services.